Back to catalog

ARGOS

AliveScienceSSO
NORAD 25634·PAYLOAD·🇺🇸 United States

Launched Feb 23, 1999 from Vandenberg Space Force Base

Loading…

Next Passes (next 24 hours)

TLE

FreshSource: Space-Track

Epoch: Sep 14, 2026, 14:46 UTC

1 25634U 99008A   26257.61542273  .00000017  00000-0  27923-4 0  9993
2 25634  98.5241 220.3681 0010856 136.4874 223.7161 14.20001435426998

Track ARGOS in real time with AllMySat

Download on the App Store